Location: *
(44.1392°N, 4.8079°E)
Time: 08:20:16
(UTC+00:00)

ATLAS 5 CENTAUR R/B - Pass Details

Date: 21 June 2021
Orbit: 510 x 1148 km, 63.4° (Epoch: 28 July)

Event Time Altitude Azimuth Distance (km) Brightness Sun altitude
Exits shadow 00:28:58 23° 110° (ESE) 1,173 2.9 -21.6°
Drops below altitude 10° 00:32:07 10° 61° (ENE) 1,894 4.6 -21.5°
Sets 00:34:49 0° 48° (NE) 2,890 5.9 -21.4°
